Location: Waco, TX
(31.5480°N, 97.1670°W)
Time: 15:04:28
(UTC-05:00)

ISS - Pass Details

Date: 19 August 2019
Orbit: 410 x 421 km, 51.6° (Epoch: 22 August)

Event Time Altitude Azimuth Distance (km) Brightness Sun altitude
Rises 08:45:31 0° 229° (SW) 2,335 -0.4 22.1°
Reaches altitude 10° 08:47:37 10° 232° (SW) 1,478 -1.4 22.5°
Maximum altitude 08:50:55 68° 315° (NW) 450 -3.4 23.2°
Drops below altitude 10° 08:54:15 10° 40° (NE) 1,492 -0.3 24.0°
Sets 08:56:22 0° 43° (NE) 2,360 0.7 24.4°
